Flag for Germany Weather past 2 weeks in Lippstadt, North Rhine-Westphalia, Germany

Now
55 °F

Scattered clouds.


Feels Like: 53 °F
Forecast: 50 / 67 °F
Wind: 8 mph from Southwest

Location: Paderborn / Lippstadt

Current Time: Aug 21, 2014 at 11:18:43 AM

Latest Report: Aug 21, 2014 at 10:50 AM


Visibility: N/A

Pressure: 30.04 "Hg

Humidity: 67%

Dew point: 45 °F

Location of LippstadtLocation

Historic Weather in Lippstadt — Graph

°F

Lippstadt temperature yesterday

Maximum temperature yesterday: 63 °F (at 2:50 PM)
Minimum temperature yesterday: 46 °F (at 3:50 AM)
Average temperature yesterday: 54 °F

Past Weeks' High & Low Weather Summary

 TemperatureHumidityPressure
High77 °F (Aug 8, 2:50 PM)100% (Aug 7, 4:20 AM)30.07 "Hg (Aug 7, 4:20 AM)
Low46 °F (Aug 19, 11:50 PM)38% (Aug 11, 5:20 PM)29.62 "Hg (Aug 10, 8:20 PM)
Average60 °F71%29.87 "Hg
* Reported Aug 6 10:20 AM — Aug 21 10:20 AM, Lippstadt, Weather by CustomWeather, © 2014

Note: Actual official high and low records may vary slightly from our data, if they occured in-between our weather recording intervals... More about our weather records

Advertising

Lippstadt weather history for previous 24 hours

 ConditionsComfort  
Time TempWeatherWind HumidityBarometerVisibility
10:20 AM
Aug 21
54 °FPassing clouds.7 mph77%30.04 "HgN/A
9:50 AM54 °FPassing clouds.8 mph77%30.04 "HgN/A
9:20 AM52 °FSunny.9 mph88%30.04 "Hg10 mi
8:50 AM50 °FSunny.9 mph88%30.04 "Hg10 mi
8:20 AM48 °FSunny.9 mph94%30.04 "Hg10 mi
7:50 AM48 °FSunny.8 mph87%30.04 "Hg10 mi
7:20 AM46 °FSunny.8 mph93%30.04 "Hg10 mi
6:50 AM46 °FClear.9 mph93%30.04 "Hg10 mi
6:20 AM46 °FClear.7 mph93%30.01 "Hg10 mi
5:50 AM46 °FClear.7 mph93%30.01 "Hg10 mi
5:20 AM46 °FClear.7 mph93%30.01 "Hg10 mi
4:50 AM46 °FClear.7 mph93%30.01 "Hg10 mi
4:20 AM48 °FClear.6 mph87%30.01 "Hg10 mi
3:50 AM48 °FClear.8 mph87%30.01 "Hg10 mi
11:50 PM
Aug 20
50 °FPartly cloudy.7 mph88%30.01 "HgN/A
11:20 PM52 °FPartly cloudy.8 mph88%30.04 "HgN/A
10:50 PM52 °FSprinkles. Partly cloudy.6 mph94%30.04 "HgN/A
10:20 PM52 °FThunderstorms. Passing clouds.7 mph88%30.04 "HgN/A
9:56 PM52 °FThunderstorms. Passing clouds.7 mph94%30.01 "HgN/A
9:20 PM50 °FScattered showers. Partly sunny.3 mph94%30.01 "HgN/A
8:50 PM52 °FRain showers. Partly sunny.2 mph82%30.01 "HgN/A
8:20 PM54 °FSprinkles. Partly sunny.5 mph72%30.01 "HgN/A
7:50 PM55 °FScattered showers. Partly sunny.3 mph72%29.98 "HgN/A
7:20 PM55 °FSprinkles. Clear.2 mph67%29.98 "HgN/A
6:50 PM57 °FScattered clouds.2 mph59%29.98 "HgN/A
6:20 PM59 °FScattered clouds.5 mph55%29.98 "HgN/A
5:50 PM57 °FScattered clouds.6 mph59%29.98 "HgN/A
5:20 PM59 °FScattered clouds.7 mph55%29.98 "HgN/A
4:50 PM61 °FScattered clouds.7 mph48%29.98 "HgN/A
4:20 PM61 °FScattered clouds.7 mph48%29.98 "HgN/A
3:50 PM63 °FScattered clouds.7 mph45%30.01 "HgN/A
3:20 PM61 °FScattered clouds.9 mph48%30.01 "HgN/A
2:50 PM63 °FScattered clouds.8 mph49%30.01 "HgN/A
2:20 PM59 °FScattered clouds.8 mph55%30.01 "HgN/A
1:50 PM61 °FScattered clouds.8 mph52%30.01 "HgN/A
1:20 PM59 °FScattered clouds.10 mph51%30.01 "HgN/A
12:50 PM61 °FScattered clouds.10 mph55%30.01 "HgN/A
12:20 PM57 °FScattered clouds.13 mph63%30.01 "HgN/A
11:50 AM57 °FScattered clouds.10 mph63%30.01 "HgN/A
11:20 AM55 °FScattered clouds.10 mph67%30.01 "HgN/A
Weather by CustomWeather, © 2014

See weather overviewHow to use our weather pages